This demonstration page uses our WeatherBlox Daily Observations layout. Learn more.

Left ArrowRight Arrow

39.01783, -85.05884

Hourly Observations for October 18, 2015

Temp ( °F °C ) Dew Point ( °F °C ) Humidity (%) Winds ( mph kmh ) Pressure ( in mb ) Visibility ( mi km ) Precip ( " mm )
12:52 am 00:52 Clear 40 4.4 25 -3.9 55 55 NNW 5 7 30.43 1031 10 16 N/A
1:52 am 01:52 Clear 35 1.7 25 -3.9 67 67 N N/A 30.42 1030 10 16 N/A
2:52 am 02:52 Clear 30 -1.1 26 -3.3 85 85 N N/A 30.43 1031 10 16 N/A
3:52 am 03:52 Clear 28 -2.2 25 -3.9 88 88 N N/A 30.42 1030 10 16 N/A
4:52 am 04:52 Clear 29 -1.7 26 -3.3 89 89 N N/A 30.43 1031 10 16 N/A
5:52 am 05:52 Clear 29 -1.7 27 -2.8 92 92 N N/A 30.45 1031 10 16 N/A
6:52 am 06:52 Clear 28 -2.2 27 -2.8 96 96 N N/A 30.46 1032 10 16 N/A
7:52 am 07:52 Sunny 28 -2.2 26 -3.3 92 92 N N/A 30.48 1032 7 11 N/A
8:52 am 08:52 Sunny 33 0.6 30 -1.1 89 89 N N/A 30.50 1033 8 13 N/A
9:52 am 09:52 Sunny 42 5.6 31 -0.6 65 65 VRB 5 7 30.51 1033 10 16 N/A
10:52 am 10:52 Sunny 47 8.3 28 -2.2 48 48 W 8 13 30.52 1033 10 16 N/A
11:52 am 11:52 Sunny 51 10.6 31 -0.6 46 46 WNW 7 11 30.52 1033 10 16 N/A
12:52 pm 12:52 Mostly Sunny 54 12.2 30 -1.1 40 40 WNW 8 13 30.50 1033 10 16 N/A
1:52 pm 13:52 Partly Cloudy 55 12.8 28 -2.2 35 35 VRB 3 6 30.48 1032 10 16 N/A
2:52 pm 14:52 Partly Cloudy 57 13.9 27 -2.8 32 32 VRB 3 6 30.45 1031 10 16 N/A
3:52 pm 15:52 Mostly Sunny 58 14.4 27 -2.8 31 31 N 8 13 30.44 1031 10 16 N/A
4:52 pm 16:52 Sunny 58 14.4 26 -3.3 29 29 W 5 7 30.43 1030 10 16 N/A
5:52 pm 17:52 Sunny 57 13.9 24 -4.4 28 28 N 7 11 30.42 1030 10 16 N/A
6:52 pm 18:52 Sunny 54 12.2 24 -4.4 31 31 NW 5 7 30.42 1030 10 16 N/A
7:52 pm 19:52 Clear 49 9.4 27 -2.8 43 43 N N/A 30.42 1030 10 16 N/A
8:52 pm 20:52 Clear 44 6.7 26 -3.3 49 49 N N/A 30.43 1030 10 16 N/A
9:52 pm 21:52 Clear 41 5 27 -2.8 57 57 N N/A 30.42 1030 10 16 N/A
10:52 pm 22:52 Clear 39 3.9 29 -1.7 67 67 N N/A 30.42 1030 10 16 N/A
11:52 pm 23:52 Clear 37 2.8 31 -0.6 79 79 N N/A 30.42 1030 10 16 N/A

Powered by AerisWeather